• In Belarus
  • List of Countries
  • For 7 days
  • Water Temperature
  • Satellite Maps
  • Weather Map
  • Weather Widgets
  • user-avatar
    Login

    Hourly Weather Baku

    Today, 18 January, Thursday

    Time Temperature Precipitation Wind Pressure Humidity
    00:00 +3°C° 0 mm 7 mps 761 mmHg 65%
    01:00 +3°C° 0 mm 7 mps 760 mmHg 65%
    02:00 +3°C° 0 mm 7 mps 760 mmHg 66%
    03:00 +3°C° 0 mm 6 mps 760 mmHg 65%
    04:00 +3°C° 0 mm 6 mps 760 mmHg 66%
    05:00 +3°C° 0 mm 6 mps 760 mmHg 66%
    06:00 +3°C° 0 mm 6 mps 759 mmHg 66%
    07:00 +3°C° 0 mm 6 mps 759 mmHg 66%
    08:00 +4°C° 0 mm 6 mps 759 mmHg 66%
    09:00 +4°C° 0 mm 6 mps 759 mmHg 63%
    10:00 +5°C° 0 mm 7 mps 759 mmHg 65%
    11:00 +5°C° 0 mm 7 mps 758 mmHg 67%
    12:00 +6°C° 0 mm 7 mps 758 mmHg 70%
    13:00 +6°C° 0 mm 7 mps 757 mmHg 70%
    14:00 +7°C° 0 mm 8 mps 757 mmHg 71%
    15:00 +7°C° 0 mm 8 mps 756 mmHg 71%
    16:00 +7°C° 0 mm 8 mps 755 mmHg 73%
    17:00 +6°C° 0 mm 7 mps 755 mmHg 76%
    18:00 +6°C° 0 mm 7 mps 755 mmHg 79%
    19:00 +6°C° 0 mm 7 mps 754 mmHg 77%
    20:00 +6°C° 0 mm 7 mps 754 mmHg 75%
    21:00 +6°C° 0 mm 7 mps 754 mmHg 74%
    22:00 +6°C° 0 mm 7 mps 753 mmHg 71%
    23:00 +7°C° 0 mm 6 mps 753 mmHg 67%

    Tomorrow, 19 January, Friday

    Time Temperature Precipitation Wind Pressure Humidity
    00:00 +7°C° 0 mm 6 mps 753 mmHg 64%
    01:00 +7°C° 0 mm 6 mps 753 mmHg 60%
    02:00 +5°C° 0 mm 7 mps 753 mmHg 56%
    03:00 +5°C° 0 mm 7 mps 753 mmHg 52%
    04:00 +5°C° 0 mm 7 mps 753 mmHg 52%
    05:00 +5°C° 0 mm 7 mps 753 mmHg 51%
    06:00 +5°C° 0 mm 8 mps 753 mmHg 50%
    07:00 +6°C° 0 mm 7 mps 753 mmHg 50%
    08:00 +6°C° 0 mm 7 mps 754 mmHg 50%
    09:00 +8°C° 0 mm 7 mps 754 mmHg 49%
    10:00 +9°C° 0 mm 7 mps 754 mmHg 47%
    11:00 +10°C° 0 mm 7 mps 754 mmHg 45%
    12:00 +11°C° 0 mm 7 mps 755 mmHg 42%
    13:00 +11°C° 0 mm 6 mps 755 mmHg 44%
    14:00 +12°C° 0 mm 5 mps 755 mmHg 46%
    15:00 +12°C° 0 mm 4 mps 755 mmHg 48%
    16:00 +11°C° 0 mm 4 mps 756 mmHg 56%
    17:00 +8°C° 0 mm 4 mps 756 mmHg 64%
    18:00 +7°C° 0 mm 4 mps 757 mmHg 72%
    19:00 +7°C° 0 mm 4 mps 757 mmHg 76%
    20:00 +6°C° 0 mm 5 mps 758 mmHg 81%
    21:00 +5°C° 0 mm 6 mps 758 mmHg 86%
    22:00 +4°C° 0 mm 6 mps 758 mmHg 87%
    23:00 +4°C° 0 mm 6 mps 759 mmHg 87%

    Day after tomorrow, 20 January, Saturday

    Time Temperature Precipitation Wind Pressure Humidity
    00:00 +4°C° 0 mm 6 mps 759 mmHg 88%
    01:00 +4°C° 0 mm 7 mps 759 mmHg 87%
    02:00 +4°C° 0 mm 7 mps 760 mmHg 85%
    03:00 +4°C° 0 mm 8 mps 760 mmHg 84%
    04:00 +4°C° 0 mm 8 mps 761 mmHg 84%
    05:00 +3°C° 0 mm 9 mps 761 mmHg 83%
    06:00 +3°C° 0 mm 10 mps 761 mmHg 83%
    07:00 +3°C° 0 mm 10 mps 762 mmHg 82%
    08:00 +3°C° 0 mm 10 mps 763 mmHg 80%
    09:00 +3°C° 0 mm 11 mps 764 mmHg 78%
    10:00 +4°C° 0 mm 11 mps 764 mmHg 76%
    11:00 +4°C° 0 mm 11 mps 764 mmHg 73%
    12:00 +5°C° 0 mm 12 mps 764 mmHg 71%
    13:00 +6°C° 0 mm 11 mps 764 mmHg 71%
    14:00 +6°C° 0 mm 11 mps 765 mmHg 71%
    15:00 +6°C° 0 mm 10 mps 765 mmHg 71%
    16:00 +6°C° 0 mm 9 mps 765 mmHg 73%
    17:00 +6°C° 0 mm 8 mps 766 mmHg 74%
    18:00 +5°C° 0 mm 7 mps 766 mmHg 76%
    19:00 +5°C° 0 mm 6 mps 766 mmHg 77%
    20:00 +6°C° 0 mm 5 mps 767 mmHg 78%
    21:00 +6°C° 0 mm 4 mps 767 mmHg 79%
    22:00 +7°C° 0 mm 3 mps 767 mmHg 81%
    23:00 +5°C° 0 mm 3 mps 766 mmHg 82%

    21 January, Sunday

    Time Temperature Precipitation Wind Pressure Humidity
    00:00 +6°C° 0 mm 2 mps 766 mmHg 84%
    01:00 +5°C° 0 mm 3 mps 766 mmHg 85%
    02:00 +5°C° 0 mm 3 mps 766 mmHg 86%
    03:00 +6°C° 0 mm 4 mps 766 mmHg 87%
    04:00 +6°C° 0 mm 5 mps 766 mmHg 88%
    05:00 +5°C° 0 mm 6 mps 765 mmHg 89%
    06:00 +5°C° 0 mm 6 mps 765 mmHg 89%
    07:00 +5°C° 0 mm 7 mps 765 mmHg 86%
    08:00 +6°C° 0 mm 8 mps 765 mmHg 83%
    09:00 +6°C° 0 mm 8 mps 765 mmHg 80%
    10:00 +7°C° 0 mm 9 mps 764 mmHg 74%
    11:00 +8°C° 0 mm 9 mps 764 mmHg 68%
    12:00 +10°C° 0 mm 9 mps 763 mmHg 62%
    13:00 +9°C° 0 mm 10 mps 763 mmHg 61%
    14:00 +9°C° 0 mm 10 mps 762 mmHg 59%
    15:00 +9°C° 0 mm 10 mps 762 mmHg 57%
    16:00 +9°C° 0 mm 10 mps 762 mmHg 60%
    17:00 +8°C° 0 mm 10 mps 762 mmHg 62%
    18:00 +8°C° 0 mm 10 mps 762 mmHg 65%
    19:00 +8°C° 0 mm 10 mps 762 mmHg 67%
    20:00 +7°C° 0 mm 9 mps 762 mmHg 68%
    21:00 +7°C° 0 mm 8 mps 762 mmHg 70%
    22:00 +8°C° 0 mm 7 mps 762 mmHg 71%
    23:00 +7°C° 0 mm 6 mps 762 mmHg 73%

    22 January, Monday

    Time Temperature Precipitation Wind Pressure Humidity
    00:00 +7°C° 0 mm 5 mps 762 mmHg 74%
    01:00 +7°C° 0 mm 5 mps 762 mmHg 74%
    02:00 +7°C° 0 mm 4 mps 762 mmHg 73%
    03:00 +6°C° 0 mm 4 mps 762 mmHg 73%
    04:00 +7°C° 0 mm 3 mps 762 mmHg 73%
    05:00 +7°C° 0 mm 3 mps 762 mmHg 73%
    06:00 +7°C° 0 mm 3 mps 761 mmHg 73%
    07:00 +7°C° 0 mm 4 mps 761 mmHg 72%
    08:00 +8°C° 0 mm 4 mps 761 mmHg 71%
    09:00 +8°C° 0 mm 5 mps 761 mmHg 70%
    10:00 +9°C° 0 mm 5 mps 760 mmHg 69%
    11:00 +10°C° 0 mm 6 mps 760 mmHg 68%
    12:00 +10°C° 0 mm 6 mps 759 mmHg 67%
    13:00 +10°C° 0 mm 6 mps 758 mmHg 67%
    14:00 +11°C° 0 mm 6 mps 758 mmHg 68%
    15:00 +11°C° 0 mm 6 mps 757 mmHg 69%
    16:00 +10°C° 0 mm 6 mps 757 mmHg 72%
    17:00 +9°C° 0 mm 6 mps 757 mmHg 76%
    18:00 +9°C° 0 mm 6 mps 756 mmHg 79%
    19:00 +9°C° 0 mm 6 mps 756 mmHg 77%
    20:00 +8°C° 0 mm 6 mps 756 mmHg 75%
    21:00 +8°C° 0 mm 7 mps 756 mmHg 74%
    22:00 +8°C° 0 mm 6 mps 756 mmHg 66%
    23:00 +8°C° 0 mm 6 mps 755 mmHg 58%

    23 January, Tuesday

    Time Temperature Precipitation Wind Pressure Humidity
    00:00 +8°C° 0 mm 6 mps 755 mmHg 50%
    01:00 +7°C° 0 mm 6 mps 755 mmHg 56%
    02:00 +6°C° 0 mm 5 mps 756 mmHg 62%
    03:00 +5°C° 0 mm 5 mps 756 mmHg 67%
    04:00 +5°C° 0 mm 4 mps 756 mmHg 71%
    05:00 +5°C° 0 mm 4 mps 756 mmHg 75%
    06:00 +4°C° 0 mm 4 mps 756 mmHg 78%
    07:00 +4°C° 0 mm 3 mps 757 mmHg 77%
    08:00 +5°C° 0 mm 3 mps 757 mmHg 75%
    09:00 +5°C° 0 mm 3 mps 758 mmHg 73%
    10:00 +7°C° 0 mm 3 mps 757 mmHg 70%
    11:00 +8°C° 0 mm 2 mps 757 mmHg 66%
    12:00 +8°C° 0 mm 2 mps 757 mmHg 63%
    13:00 +9°C° 0 mm 2 mps 757 mmHg 63%
    14:00 +9°C° 0 mm 2 mps 757 mmHg 63%
    15:00 +9°C° 0 mm 2 mps 757 mmHg 62%
    16:00 +9°C° 0 mm 2 mps 757 mmHg 67%
    17:00 +8°C° 0 mm 2 mps 758 mmHg 71%
    18:00 +8°C° 0 mm 2 mps 758 mmHg 75%
    19:00 +8°C° 0 mm 2 mps 758 mmHg 76%
    20:00 +8°C° 0 mm 2 mps 758 mmHg 76%
    21:00 +8°C° 0 mm 2 mps 758 mmHg 77%
    22:00 +8°C° 0 mm 2 mps 757 mmHg 73%
    23:00 +8°C° 0 mm 3 mps 757 mmHg 70%
    Show more